This demonstration page uses our WeatherBlox Daily Observations layout. Learn more.

Left ArrowRight Arrow

Hourly Observations for June 1, 2015

Temp ( °F °C ) Dew Point ( °F °C ) Humidity (%) Winds ( mph kmh ) Pressure ( in mb ) Visibility ( mi km ) Precip ( " mm )
12:51 am 00:51 Clear 76 24.4 41 5 29 29 E 7 11 29.79 1009 10 16 0.00 0.00
1:51 am 01:51 Clear 72 22.2 41 5 33 33 N 3 6 29.80 1009 10 16 0.00 0.00
2:51 am 02:51 Clear 70 21.1 40 4.4 34 34 ESE 7 11 29.79 1009 10 16 0.00 0.00
3:51 am 03:51 Clear 67 19.4 39 3.9 36 36 NW 3 6 29.81 1010 10 16 0.00 0.00
4:51 am 04:51 Clear 67 19.4 40 4.4 37 37 N 7 11 29.83 1010 10 16 0.00 0.00
5:51 am 05:51 Sunny 69 20.6 40 4.4 35 35 Calm 29.85 1011 10 16 0.00 0.00
6:51 am 06:51 Sunny 75 23.9 41 5 29 29 SSE 5 7 29.86 1011 10 16 0.00 0.00
7:51 am 07:51 Sunny 82 27.8 41 5 23 23 Calm 29.86 1011 10 16 0.00 0.00
8:51 am 08:51 Sunny 86 30 39 3.9 19 19 Calm 29.86 1011 10 16 0.00 0.00
9:51 am 09:51 Mostly Sunny 91 32.8 39 3.9 16 16 ESE 8 13 29.84 1010 10 16 0.00 0.00
10:51 am 10:51 Partly Cloudy 94 34.4 37 2.8 14 14 VRB 5 7 29.83 1010 10 16 0.00 0.00
11:51 am 11:51 Sunny 98 36.7 37 2.8 12 12 VRB 3 6 29.79 1009 10 16 0.00 0.00
12:51 pm 12:51 Partly Cloudy 100 37.8 36 2.2 11 11 SSW 7 11 29.76 1008 10 16 0.00 0.00
1:51 pm 13:51 Cloudy 101 38.3 31 -0.6 8 8 W 8 13 29.74 1007 10 16 0.00 0.00
2:51 pm 14:51 Mostly Cloudy 102 38.9 16 -8.9 4 4 VRB 7 11 29.72 1007 10 16 0.00 0.00
3:51 pm 15:51 Mostly Cloudy 102 38.9 14 -10 4 4 NW 15 24 29.71 1006 10 16 0.00 0.00
4:51 pm 16:51 Mostly Cloudy 100 37.8 11 -11.7 4 4 NW 23 37 29.72 1006 10 16 0.00 0.00
5:51 pm 17:51 Mostly Cloudy 97 36.1 14 -10 5 5 NW 20 31 29.72 1007 10 16 0.00 0.00
6:51 pm 18:51 Mostly Cloudy 94 34.4 15 -9.4 5 5 NW 18 30 29.73 1007 10 16 0.00 0.00
7:51 pm 19:51 Partly Cloudy 89 31.7 18 -7.8 7 7 NW 10 17 29.75 1007 10 16 0.00 0.00
8:51 pm 20:51 Mostly Clear 86 30 20 -6.7 9 9 NNW 10 17 29.76 1008 10 16 0.00 0.00
9:51 pm 21:51 Clear 80 26.7 22 -5.6 11 11 W 9 15 29.78 1008 10 16 0.00 0.00
10:51 pm 22:51 Clear 74 23.3 21 -6.1 14 14 N 3 6 29.79 1009 10 16 0.00 0.00
11:51 pm 23:51 Clear 77 25 23 -5 13 13 NNW 10 17 29.78 1009 10 16 0.00 0.00

Powered by AerisWeather